Previsão horária em Ceber

Hoje, 30 Julho, Sexta-feira

Tempo Temperatura Precipitação Vento Pressão Humidade
00:00 +18°C° 0 mm 2 m/s 732 mmHg 74%
01:00 +17°C° 0 mm 2 m/s 732 mmHg 75%
02:00 +17°C° 0 mm 2 m/s 732 mmHg 76%
03:00 +16°C° 0 mm 2 m/s 732 mmHg 76%
04:00 +16°C° 0 mm 2 m/s 732 mmHg 77%
05:00 +18°C° 0 mm 2 m/s 732 mmHg 72%
06:00 +19°C° 0 mm 3 m/s 732 mmHg 67%
07:00 +21°C° 0 mm 3 m/s 732 mmHg 63%
08:00 +22°C° 0 mm 4 m/s 732 mmHg 57%
09:00 +25°C° 0 mm 4 m/s 732 mmHg 52%
10:00 +26°C° 0 mm 5 m/s 732 mmHg 46%
11:00 +27°C° 0 mm 5 m/s 732 mmHg 44%
12:00 +28°C° 0 mm 5 m/s 732 mmHg 43%
13:00 +29°C° 0 mm 5 m/s 731 mmHg 41%
14:00 +29°C° 0 mm 5 m/s 731 mmHg 42%
15:00 +29°C° 0 mm 5 m/s 731 mmHg 43%
16:00 +29°C° 0 mm 4 m/s 730 mmHg 43%
17:00 +27°C° 0 mm 3 m/s 730 mmHg 49%
18:00 +26°C° 0 mm 2 m/s 730 mmHg 55%
19:00 +24°C° 0 mm 1 m/s 730 mmHg 61%
20:00 +21°C° 0 mm 0 m/s 730 mmHg 64%
21:00 +20°C° 0 mm 0 m/s 730 mmHg 66%
22:00 +19°C° 0 mm 0 m/s 730 mmHg 69%
23:00 +19°C° 0 mm 0 m/s 730 mmHg 70%

Amanhã, 31 Julho, Sábado

Tempo Temperatura Precipitação Vento Pressão Humidade
00:00 +18°C° 0 mm 0 m/s 730 mmHg 71%
01:00 +18°C° 0 mm 0 m/s 730 mmHg 72%
02:00 +20°C° 0 mm 1 m/s 730 mmHg 74%
03:00 +19°C° 0 mm 1 m/s 729 mmHg 75%
04:00 +19°C° 0 mm 1 m/s 729 mmHg 77%
05:00 +21°C° 0 mm 1 m/s 729 mmHg 74%
06:00 +22°C° 0 mm 1 m/s 730 mmHg 71%
07:00 +24°C° 0 mm 1 m/s 730 mmHg 68%
08:00 +26°C° 0 mm 1 m/s 729 mmHg 62%
09:00 +27°C° 0 mm 2 m/s 729 mmHg 56%
10:00 +29°C° 0 mm 2 m/s 729 mmHg 50%
11:00 +29°C° 0.1 mm 3 m/s 729 mmHg 50%
12:00 +29°C° 0.1 mm 4 m/s 728 mmHg 50%
13:00 +29°C° 0.1 mm 5 m/s 728 mmHg 50%
14:00 +26°C° 1.8 mm 5 m/s 728 mmHg 63%
15:00 +22°C° 1.8 mm 5 m/s 729 mmHg 76%
16:00 +19°C° 1.8 mm 6 m/s 729 mmHg 89%
17:00 +19°C° 0.4 mm 5 m/s 729 mmHg 91%
18:00 +18°C° 0.4 mm 4 m/s 729 mmHg 92%
19:00 +18°C° 0.4 mm 3 m/s 730 mmHg 93%
20:00 +18°C° 0 mm 2 m/s 730 mmHg 94%
21:00 +17°C° 0 mm 2 m/s 730 mmHg 95%
22:00 +17°C° 0 mm 2 m/s 730 mmHg 96%
23:00 +16°C° 0 mm 2 m/s 730 mmHg 95%

Depois de amanhã, 1 Agosto, Domingo

Tempo Temperatura Precipitação Vento Pressão Humidade
00:00 +16°C° 0 mm 2 m/s 730 mmHg 95%
01:00 +16°C° 0 mm 2 m/s 730 mmHg 95%
02:00 +16°C° 0 mm 2 m/s 730 mmHg 94%
03:00 +16°C° 0 mm 2 m/s 730 mmHg 94%
04:00 +15°C° 0 mm 2 m/s 730 mmHg 94%
05:00 +18°C° 0 mm 1 m/s 730 mmHg 88%
06:00 +20°C° 0 mm 1 m/s 730 mmHg 82%
07:00 +21°C° 0 mm 1 m/s 730 mmHg 76%
08:00 +23°C° 0 mm 1 m/s 730 mmHg 69%
09:00 +24°C° 0 mm 2 m/s 730 mmHg 62%
10:00 +26°C° 0 mm 3 m/s 730 mmHg 54%
11:00 +27°C° 0.1 mm 3 m/s 729 mmHg 53%
12:00 +27°C° 0.1 mm 3 m/s 729 mmHg 51%
13:00 +28°C° 0.1 mm 4 m/s 729 mmHg 49%
14:00 +28°C° 0.1 mm 3 m/s 728 mmHg 49%
15:00 +29°C° 0.1 mm 3 m/s 727 mmHg 49%
16:00 +29°C° 0.1 mm 2 m/s 727 mmHg 50%
17:00 +26°C° 3.8 mm 3 m/s 727 mmHg 64%
18:00 +21°C° 3.8 mm 4 m/s 727 mmHg 79%
19:00 +17°C° 3.8 mm 5 m/s 727 mmHg 94%
20:00 +17°C° 0.4 mm 4 m/s 728 mmHg 94%
21:00 +17°C° 0.4 mm 3 m/s 728 mmHg 94%
22:00 +16°C° 0.4 mm 2 m/s 729 mmHg 95%
23:00 +16°C° 0.1 mm 2 m/s 729 mmHg 94%

2 Agosto, Segunda-feira

Tempo Temperatura Precipitação Vento Pressão Humidade
00:00 +16°C° 0.1 mm 3 m/s 729 mmHg 94%
01:00 +14°C° 0.1 mm 3 m/s 728 mmHg 94%
02:00 +14°C° 0.2 mm 3 m/s 729 mmHg 94%
03:00 +14°C° 0.2 mm 4 m/s 729 mmHg 94%
04:00 +14°C° 0.2 mm 4 m/s 729 mmHg 93%
05:00 +14°C° 0.3 mm 4 m/s 730 mmHg 93%
06:00 +14°C° 0.3 mm 3 m/s 730 mmHg 93%
07:00 +14°C° 0.3 mm 3 m/s 730 mmHg 93%
08:00 +16°C° 0 mm 3 m/s 731 mmHg 85%
09:00 +18°C° 0 mm 3 m/s 731 mmHg 77%
10:00 +19°C° 0 mm 4 m/s 731 mmHg 69%
11:00 +21°C° 0 mm 4 m/s 731 mmHg 63%
12:00 +22°C° 0 mm 4 m/s 731 mmHg 57%
13:00 +23°C° 0 mm 5 m/s 731 mmHg 51%
14:00 +22°C° 0 mm 4 m/s 732 mmHg 55%
15:00 +22°C° 0 mm 3 m/s 732 mmHg 58%
16:00 +21°C° 0 mm 3 m/s 732 mmHg 62%
17:00 +21°C° 0 mm 2 m/s 732 mmHg 65%
18:00 +20°C° 0 mm 2 m/s 732 mmHg 67%
19:00 +19°C° 0 mm 2 m/s 732 mmHg 69%
20:00 +19°C° 0 mm 2 m/s 732 mmHg 70%
21:00 +18°C° 0 mm 2 m/s 732 mmHg 72%
22:00 +17°C° 0 mm 2 m/s 732 mmHg 73%
23:00 +17°C° 0.1 mm 2 m/s 733 mmHg 76%

3 Agosto, Terça-feira

Tempo Temperatura Precipitação Vento Pressão Humidade
00:00 +16°C° 0.1 mm 2 m/s 733 mmHg 80%
01:00 +15°C° 0.1 mm 2 m/s 733 mmHg 83%
02:00 +15°C° 0 mm 2 m/s 733 mmHg 85%
03:00 +14°C° 0 mm 2 m/s 734 mmHg 87%
04:00 +14°C° 0 mm 2 m/s 734 mmHg 88%
05:00 +15°C° 0 mm 2 m/s 734 mmHg 83%
06:00 +16°C° 0 mm 3 m/s 735 mmHg 78%
07:00 +18°C° 0 mm 3 m/s 735 mmHg 72%
08:00 +19°C° 0 mm 3 m/s 735 mmHg 64%
09:00 +20°C° 0 mm 4 m/s 735 mmHg 56%
10:00 +22°C° 0 mm 4 m/s 735 mmHg 47%
11:00 +22°C° 0 mm 4 m/s 735 mmHg 45%
12:00 +23°C° 0 mm 4 m/s 735 mmHg 44%
13:00 +25°C° 0 mm 4 m/s 735 mmHg 42%
14:00 +25°C° 0 mm 3 m/s 735 mmHg 42%
15:00 +25°C° 0 mm 3 m/s 735 mmHg 41%
16:00 +25°C° 0 mm 3 m/s 734 mmHg 41%
17:00 +23°C° 0 mm 2 m/s 734 mmHg 47%
18:00 +21°C° 0 mm 2 m/s 734 mmHg 53%
19:00 +20°C° 0 mm 1 m/s 734 mmHg 59%
20:00 +19°C° 0 mm 1 m/s 734 mmHg 60%
21:00 +17°C° 0 mm 2 m/s 734 mmHg 62%
22:00 +16°C° 0 mm 2 m/s 734 mmHg 63%
23:00 +16°C° 0 mm 2 m/s 734 mmHg 65%

4 Agosto, Quarta-feira

Tempo Temperatura Precipitação Vento Pressão Humidade
00:00 +16°C° 0 mm 2 m/s 734 mmHg 66%
01:00 +15°C° 0 mm 2 m/s 734 mmHg 67%
02:00 +15°C° 0 mm 2 m/s 734 mmHg 69%
03:00 +15°C° 0 mm 2 m/s 734 mmHg 71%
04:00 +15°C° 0 mm 2 m/s 734 mmHg 73%
05:00 +16°C° 0 mm 2 m/s 734 mmHg 72%
06:00 +17°C° 0 mm 3 m/s 734 mmHg 72%
07:00 +18°C° 0 mm 3 m/s 734 mmHg 71%
08:00 +19°C° 0 mm 3 m/s 733 mmHg 70%
09:00 +20°C° 0 mm 3 m/s 733 mmHg 68%
10:00 +21°C° 0 mm 3 m/s 733 mmHg 67%
11:00 +20°C° 0.3 mm 3 m/s 733 mmHg 72%
12:00 +20°C° 0.3 mm 2 m/s 733 mmHg 78%
13:00 +20°C° 0.3 mm 1 m/s 734 mmHg 83%
14:00 +20°C° 0.3 mm 1 m/s 733 mmHg 84%
15:00 +19°C° 0.3 mm 2 m/s 733 mmHg 85%
16:00 +19°C° 0.3 mm 2 m/s 733 mmHg 86%
17:00 +19°C° 0.3 mm 2 m/s 733 mmHg 88%
18:00 +18°C° 0.3 mm 2 m/s 733 mmHg 90%
19:00 +18°C° 0.3 mm 2 m/s 733 mmHg 93%
20:00 +17°C° 0 mm 2 m/s 733 mmHg 93%
21:00 +17°C° 0 mm 2 m/s 733 mmHg 94%
22:00 +16°C° 0 mm 2 m/s 733 mmHg 95%
23:00 +16°C° 0 mm 2 m/s 733 mmHg 95%
Mostrar mais

Necessitamos do seu Consentimento

A Meteoprog e os seus Fornecedores de Serviços podem armazenar e aceder a dados pessoais como cookies, identificadores do dispositivo ou outras tecnologias semelhantes existentes no seu dispositivo e processar estes dados para personalizar conteúdos e anúncios, assim como funcionalidades nas redes sociais e análise de tráfego.

  • Armazenar e/ou aceder a informações no seu dispositivo

    Os cookies, identificadores do dispositivo ou outras informações podem ser armazenados ou acedidos no seu dispositivo, para os fins acima indicados.

  • Anúncios e conteúdos personalizados, medição de anúncios e conteúdos, dados sobre o público-alvo e desenvolvimento de produtos

    Os anúncios e os conteúdos podem ser personalizados com base num perfil. Podem ser adicionados dados adicionais para uma maior personalização dos anúncios e dos conteúdos. A eficácia dos anúncios e dos conteúdos pode ser medida. Podem ser obtidas informações sobre o público que visualizou os anúncios e os conteúdos. Estes dados podem ser usados para desenvolver ou melhorar sistemas, softwares ou a experiência do utilizador.

Ao clicar em "Eu concordo”, permitirá o uso de cookies, identificadores do dispositivo e web beacons mencionados ou outras tecnologias semelhantes. As configurações do navegador do seu dispositivo podem ser alteradas.

Para certos fins, podem ser invocados interesses legítimos ao invés de consentimento. Pode ler mais informação sobre este assunto na nossa Política de Privacidade e Cookies.